[[{"header":{"parameterUnit":"m.s-1","parameterCategory":1,"la1":30.2991,"la2":30.254,"lo1":-89.0895,"lo2":-89.0444,"dy":0.0017,"dx":0.0017,"nx":28,"ny":28,"refTime":"2024-03-11T09:00:00:Z","depth":0,"parameterNumber":2,"parameterNumberName":"U-component_of_WINDS"},"data":[0,0,0,0,0,0,0,0,0,0,0,0,0,0,0,0,0,0,0,0,0,0,0,0,0,0,0,0,0,0,0,0,0,0,0,0,0,0,0,0,0,0,0,0,0,0,0,0,0,0,0,0,0,0,0,0,0,0,-0.9422,-0.9423,0,-0.9454,-0.9454,-0.9454,-0.9385,-0.9383,-0.938,-0.9378,-0.9413,-0.9416,-0.9419,0,0,0,0,0,0,0,0,0,0,0,0,0,-0.9303,-0.9306,-0.9422,-0.9423,-0.9423,-0.9454,-0.9454,-0.9455,-0.9385,-0.9382,-0.938,-0.9377,-0.9412,-0.9415,-0.9419,0,0,0,0,0,0,0,0,0,0,0,0,0,-0.9347,-0.9307,-0.9422,-0.9392,-0.939,-0.9454,-0.9454,-0.9455,-0.9386,-0.9382,-0.9379,-0.9376,-0.941,-0.9415,-0.9419,-0.9515,0,0,-0.9433,-0.9435,0,0,0,0,0,0,0,0,-0.9345,-0.9351,-0.9396,-0.9394,-0.9392,-0.9412,-0.9425,-0.9475,-0.9387,-0.9387,-0.9378,-0.9374,-0.9415,-0.9419,-0.9433,-0.9516,-0.9518,-0.9434,-0.9436,-0.9438,-0.9439,0,0,0,0,0,0,0,-0.9342,-0.935,-0.9435,-0.9397,-0.9394,-0.9377,-0.938,-0.9434,-0.942,-0.9387,-0.9382,-0.9387,-0.9413,-0.9428,-0.9433,-0.9518,-0.9433,-0.9437,-0.944,-0.9442,-0.9682,-0.9686,0,0,0,0,0,0,-0.9342,-0.9348,-0.9434,-0.9436,-0.9359,-0.9382,-0.9385,-0.9409,-0.9419,-0.9417,-0.9389,-0.9383,-0.9422,-0.9428,-0.9434,-0.9547,-0.9438,-0.9442,-0.9445,-0.9679,-0.9683,-0.9687,0,0,0,0,0,0,-0.934,-0.9351,-0.9432,-0.939,-0.9399,-0.9388,-0.9415,-0.9411,-0.9426,-0.9421,-0.9418,-0.9407,-0.942,-0.9427,-0.9495,-0.9547,-0.9444,-0.9449,-0.9674,-0.968,-0.9685,-0.9774,0,0,0,0,0,0,-0.9337,-0.935,-0.9386,-0.9392,-0.9402,-0.9493,-0.9418,-0.9414,-0.9434,-0.9426,-0.9437,-0.9436,-0.9418,-0.9489,-0.95,-0.9552,-0.9452,-0.967,-0.9677,-0.9683,-0.9767,-0.9782,-0.9795,0,0,0,0,0,-0.9333,-0.941,-0.9388,-0.9399,-0.9447,-0.9496,-0.9502,-0.948,-0.9438,-0.9475,-0.9471,-0.9435,-0.9539,-0.9496,-0.9508,-0.9562,-0.9666,-0.9675,-0.9683,-0.976,-0.9779,-0.9795,0,0,0,0,0,0,-0.9412,-0.9411,-0.9386,-0.9468,-0.9483,-0.9484,-0.953,-0.95,-0.9528,-0.952,-0.9491,-0.9494,-0.9568,-0.9571,-0.9523,-0.9655,-0.9596,-0.9607,-0.9651,-0.9669,-0.9683,-0.9682,-0.9456,0,0,0,0,0,-0.9439,-0.9479,-0.9475,-0.9548,-0.9556,-0.9542,-0.9563,-0.9544,-0.9559,-0.9565,-0.9566,-0.9582,-0.9618,-0.9643,-0.9676,-0.9766,-0.9768,-0.9809,-0.9823,-0.9835,-0.9846,-0.9894,-0.9913,-0.9714,-0.9714,-0.9714,0,0,-0.9496,-0.9499,-0.9527,-0.9564,-0.9573,-0.9616,-0.9548,-0.9596,-0.9628,-0.9572,-0.9637,-0.9638,-0.9654,-0.9733,-0.9768,-0.9739,-0.99,-0.9845,-0.9855,-0.9859,-0.9905,-0.9924,-0.994,-0.972,-0.9719,-0.9718,0,0,-0.9621,-0.9627,-0.9689,-0.9699,-0.9713,-0.9703,-0.9718,-0.9724,-0.9723,-0.9786,-0.9746,-0.9783,-0.9845,-0.9859,-0.9874,-1.0003,-0.9971,-1.0014,-1.009,-1.0138,-1.0154,-1.0167,-1.0215,-1.0232,-1.0024,-1.0024,-1.0024,0,-0.969,-0.9752,-0.9724,-0.9775,-0.9793,-0.9743,-0.9806,-0.9817,-0.9842,-0.9856,-0.9822,-0.99,-0.9907,-0.9989,-1.002,-1.0033,-1.005,-1.0014,-1.0153,-1.0167,-1.0179,-1.0225,-1.0242,-1.0029,-1.0029,-1.0028,-1.0028,0,-0.9837,-0.988,-0.9928,-0.9953,-0.9976,-1.0033,-1.0014,-1.004,-1.0019,-1.0012,-1.0078,-1.0084,-1.0118,-1.0135,-1.0115,-1.0215,-1.0196,-1.0158,-1.0098,-1.0204,-1.0246,-1.0263,-1.0037,-1.0035,-1.0034,-1.0032,0,0,-1.0016,-1.0023,-1.0041,-1.0052,-1.0064,-1.0098,-1.0151,-1.0184,-1.0208,-1.0226,-1.0272,-1.0325,-1.029,-1.0307,-1.0287,-1.0329,-1.0432,-1.0286,-1.0286,-1.0315,-1.0544,-1.0575,-1.0595,-1.041,-1.0413,-1.0416,-1.0544,0,-1.0141,-1.0234,-1.021,-1.0303,-1.0343,-1.0296,-1.0343,-1.0355,-1.035,-1.0384,-1.0378,-1.0417,-1.0367,-1.0377,-1.0415,-1.0412,-1.0478,-1.0401,-1.0454,-1.0456,-1.0454,-1.0617,-1.065,-1.0771,-1.056,-1.0563,-1.0564,0,-1.0301,-1.0325,-1.0422,-1.0427,-1.0443,-1.0486,-1.0513,-1.0546,-1.0559,-1.0552,-1.0571,-1.0542,-1.0596,-1.0534,-1.0608,-1.0557,-1.0576,-1.0577,-1.0581,-1.0588,-1.0519,-1.063,-1.0808,-1.0828,-1.059,-1.0588,-1.0586,0,-1.0425,-1.0481,-1.0546,-1.0556,-1.0563,-1.0595,-1.0599,-1.0609,-1.0629,-1.0653,-1.0667,-1.0697,-1.0714,-1.0738,-1.0718,-1.0674,-1.0797,-1.0732,-1.0794,-1.0795,-1.0824,-1.0823,-1.1011,-1.0833,-1.0832,-1.0832,-1.0832,0,-1.0569,-1.0631,-1.0602,-1.0643,-1.071,-1.0681,-1.0749,-1.0748,-1.0756,-1.0796,-1.0756,-1.0794,-1.0765,-1.0801,-1.0786,-1.0851,-1.0858,-1.0855,-1.0851,-1.0861,-1.0862,-1.0875,-1.0868,-1.0837,-1.0836,-1.0835,-1.0834,0,-1.072,-1.0703,-1.0771,-1.0771,-1.0773,-1.0823,-1.0823,-1.0861,-1.0852,-1.0903,-1.0913,-1.0899,-1.0939,-1.0922,-1.0964,-1.0954,-1.1038,-1.1021,-1.1034,-1.1031,-1.1094,-1.1089,-1.1299,-1.1326,-1.1128,-1.113,-1.1132,0,-1.0815,-1.0861,-1.0866,-1.0889,-1.0897,-1.0935,-1.0956,-1.0928,-1.0951,-1.0969,-1.1005,-1.1042,-1.107,-1.1136,-1.113,-1.1162,-1.1148,-1.1219,-1.1153,-1.1161,-1.1152,-1.115,-1.1156,-1.1233,-1.1236,-1.1238,-1.1239,0,-1.0986,-1.0974,-1.1006,-1.1034,-1.106,-1.1081,-1.1099,-1.1121,-1.1094,-1.1122,-1.1162,-1.1184,-1.1227,-1.1264,-1.1292,-1.1297,-1.1265,-1.1259,-1.1276,-1.1288,-1.1294,-1.1294,-1.1073,-1.1256,-1.1254,-1.1253,-1.1252,-1.1251,-1.1113,-1.1152,-1.1162,-1.1198,-1.1208,-1.1225,-1.1261,-1.1256,-1.1289,-1.1321,-1.1302,-1.135,-1.1361,-1.1395,-1.1404,-1.1441,-1.1414,-1.1437,-1.1443,-1.145,-1.146,-1.1286,-1.1446,-1.1446,-1.1445,-1.1445,-1.1444,0,-1.1284,-1.1287,-1.132,-1.1346,-1.1375,-1.134,-1.1357,-1.1384,-1.1426,-1.1439,-1.1467,-1.1513,-1.1549,-1.1545,-1.1577,-1.1608,-1.1594,-1.1618,-1.1617,-1.1619,-1.1482,-1.1465,-1.1629,-1.1629,-1.1628,-1.1628,-1.1628,-1.1628,-1.1376,-1.1441,-1.1431,-1.1501,-1.1503,-1.1549,-1.1562,-1.1578,-1.1588,-1.1642,-1.1671,-1.1668,-1.1674,-1.1706,-1.1738,-1.1735,-1.1751,-1.1781,-1.1773,-1.1646,-1.1628,-1.1611,-1.1596,-1.1783,-1.1784,-1.1907,-1.1909,-1.191]},{"header":{"parameterUnit":"m.s-1","parameterCategory":1,"la1":30.2991,"la2":30.254,"lo1":-89.0895,"lo2":-89.0444,"dy":0.0017,"dx":0.0017,"nx":28,"ny":28,"refTime":"2024-03-11T09:00:00:Z","depth":0,"parameterNumber":3,"parameterNumberName":"V-component_of_WINDS"},"data":[0,0,0,0,0,0,0,0,0,0,0,0,0,0,0,0,0,0,0,0,0,0,0,0,0,0,0,0,0,0,0,0,0,0,0,0,0,0,0,0,0,0,0,0,0,0,0,0,0,0,0,0,0,0,0,0,0,0,-3.6975,-3.6976,0,-3.7057,-3.7058,-3.7059,-3.7008,-3.7006,-3.7004,-3.7001,-3.7084,-3.7088,-3.7092,0,0,0,0,0,0,0,0,0,0,0,0,0,-3.6773,-3.6777,-3.6975,-3.6976,-3.6977,-3.7057,-3.7058,-3.7059,-3.7009,-3.7006,-3.7003,-3.7,-3.7082,-3.7087,-3.7093,0,0,0,0,0,0,0,0,0,0,0,0,0,-3.6859,-3.6779,-3.6975,-3.6962,-3.6961,-3.7056,-3.7058,-3.7059,-3.7009,-3.7006,-3.7002,-3.6999,-3.7081,-3.7087,-3.7094,-3.7206,0,0,-3.7114,-3.7117,0,0,0,0,0,0,0,0,-3.6854,-3.6866,-3.6963,-3.6963,-3.6963,-3.7019,-3.7017,-3.7108,-3.701,-3.6991,-3.7001,-3.6997,-3.7065,-3.7073,-3.7096,-3.721,-3.7213,-3.7114,-3.7118,-3.7121,-3.7123,0,0,0,0,0,0,0,-3.6848,-3.6862,-3.7007,-3.6964,-3.6964,-3.6951,-3.6959,-3.7034,-3.7047,-3.6992,-3.6989,-3.6999,-3.7064,-3.7089,-3.7097,-3.7214,-3.7114,-3.712,-3.7124,-3.7127,-3.7423,-3.7427,0,0,0,0,0,0,-3.6843,-3.6858,-3.7005,-3.701,-3.6898,-3.6957,-3.6967,-3.7004,-3.7046,-3.7049,-3.7002,-3.6997,-3.708,-3.709,-3.71,-3.7233,-3.7121,-3.7127,-3.7131,-3.7419,-3.7424,-3.7428,0,0,0,0,0,0,-3.6839,-3.6857,-3.7001,-3.6933,-3.695,-3.6965,-3.7007,-3.7008,-3.7033,-3.7054,-3.7055,-3.7026,-3.7077,-3.7091,-3.718,-3.7236,-3.713,-3.7136,-3.7415,-3.7421,-3.7426,-3.7502,0,0,0,0,0,0,-3.6834,-3.6856,-3.6899,-3.6934,-3.6954,-3.7081,-3.7011,-3.7012,-3.7045,-3.7038,-3.7076,-3.7079,-3.7076,-3.717,-3.7186,-3.7243,-3.7142,-3.741,-3.7417,-3.7424,-3.7494,-3.751,-3.7523,0,0,0,0,0,-3.6827,-3.6917,-3.6902,-3.692,-3.7009,-3.7084,-3.7095,-3.709,-3.7049,-3.7093,-3.7106,-3.7078,-3.7227,-3.718,-3.7197,-3.7257,-3.7406,-3.7415,-3.7424,-3.7488,-3.7507,-3.7522,0,0,0,0,0,0,-3.6888,-3.6922,-3.6905,-3.701,-3.7044,-3.7075,-3.713,-3.711,-3.7157,-3.7149,-3.7139,-3.7148,-3.7241,-3.7258,-3.7205,-3.7367,-3.731,-3.7323,-3.7353,-3.7371,-3.7384,-3.7378,-3.7147,0,0,0,0,0,-3.6914,-3.6973,-3.6999,-3.7089,-3.7107,-3.7116,-3.7148,-3.7141,-3.7177,-3.7191,-3.721,-3.7245,-3.73,-3.7336,-3.7388,-3.7496,-3.7503,-3.7546,-3.756,-3.7571,-3.7583,-3.764,-3.7659,-3.7457,-3.7457,-3.7457,0,0,-3.6968,-3.6994,-3.7031,-3.7102,-3.7128,-3.7188,-3.7128,-3.7195,-3.724,-3.7201,-3.7286,-3.7302,-3.734,-3.7439,-3.7484,-3.7456,-3.764,-3.7583,-3.7592,-3.7597,-3.7651,-3.767,-3.7687,-3.7463,-3.7462,-3.7461,0,0,-3.7097,-3.7123,-3.72,-3.7227,-3.7268,-3.7273,-3.7291,-3.7325,-3.7334,-3.742,-3.7391,-3.7444,-3.7538,-3.7566,-3.7593,-3.7732,-3.7708,-3.7749,-3.7822,-3.7879,-3.7895,-3.7909,-3.7958,-3.7975,-3.776,-3.776,-3.776,0,-3.7159,-3.725,-3.7242,-3.7311,-3.7342,-3.731,-3.7388,-3.7414,-3.7469,-3.7491,-3.7459,-3.7577,-3.76,-3.7705,-3.7739,-3.7762,-3.7782,-3.7745,-3.7893,-3.7907,-3.792,-3.7967,-3.7985,-3.7765,-3.7764,-3.7764,-3.7763,0,-3.7323,-3.7387,-3.7444,-3.7498,-3.7536,-3.7609,-3.7611,-3.765,-3.764,-3.7648,-3.7734,-3.7761,-3.7817,-3.7842,-3.7832,-3.7945,-3.7926,-3.7894,-3.7837,-3.7944,-3.7988,-3.8005,-3.7771,-3.777,-3.7768,-3.7767,0,0,-3.7495,-3.7543,-3.7564,-3.7588,-3.7629,-3.7677,-3.7748,-3.7803,-3.7836,-3.7875,-3.7934,-3.8014,-3.7984,-3.8014,-3.8007,-3.8057,-3.8164,-3.8018,-3.8019,-3.8044,-3.8289,-3.8313,-3.8334,-3.8148,-3.8151,-3.8154,-3.8286,0,-3.7626,-3.775,-3.7745,-3.7861,-3.7918,-3.7888,-3.7949,-3.7981,-3.799,-3.804,-3.805,-3.8107,-3.8063,-3.8081,-3.8129,-3.8141,-3.8213,-3.8131,-3.8202,-3.8205,-3.8193,-3.8357,-3.8383,-3.8506,-3.8303,-3.8306,-3.8308,0,-3.7796,-3.784,-3.7962,-3.7994,-3.8018,-3.8074,-3.8123,-3.8171,-3.8206,-3.8209,-3.8242,-3.8227,-3.8298,-3.8238,-3.8335,-3.828,-3.8308,-3.8318,-3.8323,-3.8329,-3.8263,-3.8368,-3.8546,-3.8564,-3.8335,-3.8333,-3.8331,0,-3.7908,-3.7998,-3.8082,-3.8103,-3.8143,-3.8183,-3.8201,-3.8232,-3.8265,-3.8308,-3.8329,-3.838,-3.8407,-3.8446,-3.8444,-3.8402,-3.8543,-3.8483,-3.8546,-3.8547,-3.8578,-3.8576,-3.8763,-3.8596,-3.8596,-3.8596,-3.8595,0,-3.8055,-3.813,-3.8133,-3.8185,-3.8268,-3.8261,-3.8343,-3.8357,-3.8385,-3.8438,-3.8415,-3.8465,-3.846,-3.8511,-3.851,-3.859,-3.8602,-3.8606,-3.8605,-3.8609,-3.8608,-3.8627,-3.8618,-3.8601,-3.86,-3.8599,-3.8598,0,-3.8194,-3.8199,-3.8289,-3.8319,-3.8328,-3.8388,-3.8413,-3.8462,-3.8468,-3.8536,-3.8552,-3.8562,-3.862,-3.8622,-3.8689,-3.8688,-3.8786,-3.8775,-3.8774,-3.8772,-3.8835,-3.8829,-3.9041,-3.9068,-3.8884,-3.8886,-3.8888,0,-3.8288,-3.8345,-3.8381,-3.8415,-3.8436,-3.8491,-3.8525,-3.8519,-3.8555,-3.8598,-3.8642,-3.8698,-3.8742,-3.8837,-3.885,-3.8901,-3.8891,-3.8961,-3.8898,-3.8899,-3.8891,-3.8888,-3.8893,-3.8974,-3.8976,-3.8977,-3.8979,0,-3.8453,-3.8452,-3.8502,-3.8552,-3.8592,-3.8632,-3.8668,-3.8697,-3.8696,-3.8737,-3.8796,-3.8831,-3.8899,-3.8954,-3.9003,-3.9021,-3.9,-3.8998,-3.9016,-3.902,-3.9017,-3.9019,-3.8808,-3.8994,-3.8992,-3.8991,-3.899,-3.899,-3.8572,-3.8621,-3.8654,-3.871,-3.8736,-3.877,-3.8817,-3.883,-3.8879,-3.8934,-3.8928,-3.8994,-3.9026,-3.909,-3.9112,-3.9162,-3.9138,-3.9163,-3.917,-3.9176,-3.9182,-3.9009,-3.9171,-3.9171,-3.9171,-3.917,-3.917,0,-3.8736,-3.8755,-3.8806,-3.8858,-3.8901,-3.8877,-3.8916,-3.8953,-3.9012,-3.9044,-3.9088,-3.9155,-3.9209,-3.9226,-3.9278,-3.9315,-3.9307,-3.9329,-3.9326,-3.933,-3.9202,-3.9181,-3.9335,-3.9335,-3.9335,-3.9335,-3.9335,-3.9335,-3.8826,-3.8908,-3.8911,-3.9005,-3.9024,-3.9088,-3.9112,-3.9143,-3.9169,-3.9245,-3.929,-3.9301,-3.9326,-3.938,-3.9427,-3.9431,-3.9451,-3.9477,-3.9477,-3.9356,-3.934,-3.9324,-3.9305,-3.9482,-3.9482,-3.9602,-3.9603,-3.9604]}]]